TimePDT,TemperatureF,Dew PointF,Humidity,Sea Level PressureIn,VisibilityMPH,Wind Direction,Wind SpeedMPH,Gust SpeedMPH,PrecipitationIn,Events,Conditions,WindDirDegrees,DateUTC
12:53 AM,66.9,63.0,87,29.93,10.0,SW,3.5,-,0.01,Rain,Light Rain,220,2013-08-29 07:53:00
1:53 AM,66.0,62.1,87,29.93,10.0,WSW,3.5,-,0.01,Rain,Light Rain,240,2013-08-29 08:53:00
2:53 AM,66.0,62.1,87,29.93,10.0,SSE,4.6,-,0.00,Rain,Light Rain,150,2013-08-29 09:53:00
3:53 AM,66.9,64.0,90,29.93,8.0,SE,5.8,-,0.04,Rain,Light Rain,140,2013-08-29 10:53:00
4:53 AM,66.9,63.0,87,29.91,5.0,East,8.1,-,0.08,Rain,Heavy Rain,100,2013-08-29 11:53:00
5:53 AM,66.9,63.0,87,29.91,10.0,ESE,10.4,-,0.01,Rain,Light Rain,120,2013-08-29 12:53:00
6:53 AM,66.9,62.1,84,29.90,10.0,East,10.4,-,0.00,Rain,Light Rain,100,2013-08-29 13:53:00
7:53 AM,66.9,62.1,84,29.91,10.0,SE,6.9,-,0.00,,Overcast,140,2013-08-29 14:53:00
8:53 AM,66.0,61.0,84,29.90,7.0,East,10.4,-,0.03,Rain,Rain,100,2013-08-29 15:53:00
9:53 AM,68.0,61.0,78,29.90,10.0,ESE,10.4,17.3,0.01,Rain,Light Rain,120,2013-08-29 16:53:00
10:53 AM,68.0,62.1,81,29.92,10.0,Variable,3.5,-,0.00,,Overcast,0,2013-08-29 17:53:00
11:53 AM,68.0,63.0,84,29.94,10.0,SSW,4.6,-,0.04,,Overcast,210,2013-08-29 18:53:00
12:53 PM,68.0,63.0,84,29.96,10.0,South,8.1,-,0.04,Rain,Light Rain,190,2013-08-29 19:53:00
1:53 PM,71.1,63.0,75,29.97,10.0,South,4.6,-,0.00,Rain,Light Rain,190,2013-08-29 20:53:00
2:53 PM,72.0,62.1,71,29.98,10.0,SSW,6.9,-,0.00,,Mostly Cloudy,210,2013-08-29 21:53:00
3:53 PM,73.0,62.1,68,29.96,10.0,Calm,Calm,-,N/A,,Mostly Cloudy,0,2013-08-29 22:53:00
4:45 PM,73.4,64.4,73,29.94,9.0,East,3.5,-,0.03,Rain-Thunderstorm,Light Thunderstorms and Rain,90,2013-08-29 23:45:00
4:53 PM,72.0,64.9,78,29.97,4.0,South,5.8,-,0.06,Rain-Thunderstorm,Thunderstorms and Rain,170,2013-08-29 23:53:00
5:03 PM,68.0,62.6,83,29.96,2.0,South,10.4,24.2,0.25,Rain-Thunderstorm,Heavy Thunderstorms and Rain,180,2013-08-30 00:03:00
5:20 PM,66.2,62.6,88,29.97,4.0,SSW,8.1,-,0.37,Rain-Thunderstorm,Light Thunderstorms and Rain,200,2013-08-30 00:20:00
5:27 PM,66.2,62.6,88,29.96,10.0,South,6.9,-,0.37,Rain,Light Rain,180,2013-08-30 00:27:00
5:53 PM,66.9,63.0,87,29.98,8.0,South,4.6,-,0.37,Rain,Light Rain,180,2013-08-30 00:53:00
6:53 PM,69.1,64.9,87,29.99,10.0,South,11.5,-,0.03,,Mostly Cloudy,180,2013-08-30 01:53:00
7:53 PM,68.0,64.0,87,30.01,10.0,SSW,6.9,-,N/A,,Mostly Cloudy,200,2013-08-30 02:53:00
8:53 PM,66.9,62.1,84,30.02,10.0,SSW,9.2,-,N/A,,Mostly Cloudy,200,2013-08-30 03:53:00
9:53 PM,66.9,62.1,84,30.03,10.0,SSW,6.9,-,0.03,,Mostly Cloudy,200,2013-08-30 04:53:00
10:53 PM,66.0,63.0,90,30.04,10.0,South,5.8,-,0.01,,Overcast,190,2013-08-30 05:53:00
10:59 PM,66.2,62.6,88,30.02,10.0,SSW,5.8,-,N/A,,Overcast,200,2013-08-30 05:59:00
11:25 PM,66.2,62.6,88,30.03,10.0,South,6.9,-,N/A,,Mostly Cloudy,190,2013-08-30 06:25:00
11:53 PM,64.9,61.0,87,30.05,10.0,South,8.1,-,N/A,,Scattered Clouds,180,2013-08-30 06:53:00